EST,Max TemperatureF,Mean TemperatureF,Min TemperatureF,Max Dew PointF,MeanDew PointF,Min DewpointF,Max Humidity, Mean Humidity, Min Humidity, Max Sea Level PressureIn, Mean Sea Level PressureIn, Min Sea Level PressureIn, Max VisibilityMiles, Mean VisibilityMiles, Min VisibilityMiles, Max Wind SpeedMPH, Mean Wind SpeedMPH, Max Gust SpeedMPH,PrecipitationIn, CloudCover, Events, WindDirDegrees
2014-1-1,52,42,31,43,33,28,85,63,41,30.44,30.33,30.16,10,10,10,9,3,13,T,1,Rain,223
2014-1-2,48,47,45,46,43,38,100,86,71,30.13,29.76,29.49,10,7,2,16,3,19,0.43,8,Rain,262
2014-1-3,45,35,24,43,20,7,92,64,36,30.50,30.06,29.54,10,10,8,37,20,52,T,4,Rain-Snow,324
2014-1-4,42,31,20,35,22,10,89,67,44,30.55,30.46,30.29,10,10,10,14,5,17,0.00,3,,25
2014-1-5,63,50,37,60,49,35,93,83,72,30.27,30.11,29.83,10,10,10,13,6,21,T,6,Rain,134
2014-1-6,67,47,26,62,50,7,100,77,53,30.06,29.73,29.61,10,9,1,30,16,38,0.05,6,Rain,234
2014-1-7,26,20,13,6,-1,-6,56,45,33,30.53,30.38,30.09,10,10,10,29,13,36,0.00,0,,276
2014-1-8,37,27,17,21,12,5,81,55,29,30.64,30.57,30.50,10,10,10,12,4,13,0.00,0,,227
2014-1-9,51,38,24,32,23,13,92,57,22,30.62,30.56,30.52,10,10,10,12,3,13,0.00,1,,43
2014-1-10,67,51,35,58,48,34,96,80,63,30.49,30.34,30.15,10,10,10,17,7,24,0.03,7,Rain,131
2014-1-11,71,64,56,66,62,54,93,87,80,30.11,29.88,29.60,10,8,1,31,14,44,0.82,7,Rain,183
2014-1-12,57,48,38,54,41,33,93,68,43,30.19,29.92,29.65,10,10,10,20,11,26,0.00,2,,243
2014-1-13,61,48,34,46,39,33,92,67,42,30.24,30.13,30.00,10,10,10,20,8,25,0.00,0,,189
2014-1-14,62,51,39,59,50,40,100,89,77,29.98,29.88,29.70,10,6,0,31,7,37,0.39,5,Fog-Rain,232
2014-1-15,54,46,37,47,43,37,100,89,77,30.02,29.93,29.85,10,4,0,9,2,11,0.00,3,Fog,227
2014-1-16,45,38,30,44,36,28,100,85,70,30.05,29.93,29.85,10,8,0,20,10,25,0.00,5,Fog,326
2014-1-17,52,40,28,40,32,26,92,66,39,30.06,29.99,29.88,10,10,10,17,9,20,0.00,1,,194
2014-1-18,48,37,26,42,26,15,83,61,38,30.05,29.93,29.78,10,10,10,24,11,30,T,2,,252
2014-1-19,51,39,26,32,26,18,70,55,39,30.04,29.95,29.86,10,10,10,18,11,23,0.00,2,,215
2014-1-20,61,48,35,34,31,28,70,51,32,29.90,29.83,29.75,10,10,10,17,10,23,0.00,0,,210
2014-1-21,58,45,31,44,36,30,100,70,40,29.83,29.65,29.51,10,8,0,28,12,34,0.07,3,Fog-Rain-Snow,359
2014-1-22,27,18,9,24,12,0,92,65,38,30.14,29.88,29.70,10,6,1,32,14,42,0.01,4,Snow,311
2014-1-23,33,21,8,15,11,5,92,66,39,30.40,30.26,30.14,10,10,10,21,7,25,0.00,1,,279
2014-1-24,26,20,14,7,3,0,67,52,36,30.59,30.46,30.30,10,10,10,23,11,29,0.00,1,,309
2014-1-25,39,29,18,21,14,6,62,52,41,30.28,29.89,29.63,10,10,10,25,16,32,0.00,2,,218
2014-1-26,46,35,24,32,21,11,70,52,33,30.02,29.92,29.79,10,10,10,21,9,27,0.00,0,,219
2014-1-27,63,48,32,35,33,31,70,63,56,29.89,29.87,29.86,10,10,10,15,12,,0.00,0,,201
2014-1-28,32,26,20,18,14,7,91,67,42,30.36,30.25,30.14,10,6,1,25,19,31,0.28,7,Snow,2
2014-1-29,23,19,14,18,13,3,91,68,45,30.40,30.22,30.12,10,6,0,24,13,31,0.09,5,Fog-Snow,331
2014-1-30,35,21,7,28,19,3,80,70,59,30.44,30.34,30.22,10,10,7,16,8,19,T,4,,349
2014-1-31,45,36,26,28,25,15,85,58,31,30.24,30.20,30.16,10,10,6,10,3,12,T,4,,303